Location: *
(51.0333°S, 178.4667°E)
Time: 23:27:38
(UTC+00:00)

CZ-2D R/B - Pass Details

Date: 15 November 2019
Orbit: 521 x 539 km, 97.4° (Epoch: 08 December)

Event Time Altitude Azimuth Distance (km) Brightness Sun altitude
Rises 08:18:03 0° 171° (S) 2,721 7.3 -6.4°
Reaches altitude 10° 08:20:13 10° 175° (S) 1,825 6.5 -6.7°
Maximum altitude 08:24:03 53° 251° (WSW) 681 4.3 -7.1°
Drops below altitude 10° 08:27:52 10° 328° (NNW) 1,810 5.9 -7.6°
Sets 08:30:01 0° 332° (NNW) 2,696 6.7 -7.8°
